Regional Weather Roundup
Issued by NWS Wakefield, VA

Home | Current Version | Previous Version | Text Only | Print | Product List | Glossary Off
Versions: 1 2 3 4 5 6 7 8 9 10 11 12 13 14 15 16 17 18 19 20 21 22 23 24 25 26 27 28 29 30 31 32 33 34 35 36 37 38 39 40 41 42 43 44 45 46 47 48 49 50

000
ASUS41 KAKQ 021814
RWRAKQ

REGIONAL WEATHER ROUNDUP
NATIONAL WEATHER SERVICE WAKEFIELD VA
200 PM EDT WED SEP 02 2015

Note: "fair" indicates few or no clouds below 12,000 feet with no
significant weather and/or obstructions to visibility. * = Denotes
station may not report precipitation (e.g., rain,snow,etc.),
thunder or fog.

VAZ042-051-052>054-056-021900-
NORTHERN VIRGINIA

CITY           SKY/WX    TMP DP  RH WIND       PRES   REMARKS
WASH NATIONAL  PTSUNNY   92  67  43 N7        29.99F HX  95
DULLES         PTSUNNY   90  66  45 CALM      30.00F
FORT BELVOIR   PTSUNNY   91  68  46 VRB2      29.99F
QUANTICO       PTSUNNY   85  72  65 CALM      30.00F
FREDERICKSBRG* CLOUDY    91  70  50 N5        29.98F HX  97
STAFFORD*      CLOUDY    89  68  50 NW3       30.04F
WARRENTON      PTSUNNY   88  71  55 CALM      30.01F
CULPEPER*      MOSUNNY   86  70  58 CALM      30.01F
MANASSAS*      SUNNY     88  72  58 CALM      30.01F
LEESBURG*      MOSUNNY   91  72  52 SW6       30.01F HX  98
WINCHESTER     CLOUDY    88  68  51 SE9       30.03S
FRONT ROYAL*   MOCLDY    82  68  61 N17G25    30.02F
LURAY*         MOCLDY    79  63  57 SE5       30.03F
$$

VAZ048-049-060>072-079>083-021900-
CENTRAL AND SOUTH CENTRAL VIRGINIA

CITY           SKY/WX    TMP DP  RH WIND       PRES   REMARKS
RICHMOND       CLOUDY    83  68  60 SE14      29.99F
CHESTERFIELD*  FAIR      91  64  40 SW8       30.01F
PETERSBURG*    PTSUNNY   94  73  49 W3        30.00F HX 102
HANOVER        CLOUDY    90  71  53 VRB5      30.01F HX  96
TAPPAHANNOCK*  CLOUDY    90  66  44 CALM      30.00F
QUINTON*       FAIR      83  69  61 SW10G16   30.00S
CHARLOTTSVILLE PTSUNNY   88  65  46 NE3       30.02F
GORDONSVILLE*  FAIR      89  70  53 CALM      30.00F
ORANGE*        PTSUNNY   90  68  48 CALM      30.02F
LOUISA*        CLOUDY    90  70  51 NE3       30.01F HX  95
BUMPASS*       FAIR      87  69  55 CALM      30.01F
FARMVILLE*     MOSUNNY   93  64  38 E7        30.00F
CREWE*         FAIR     N/A N/A N/A NW3       30.01F
FORT PICKETT*  FAIR      91  67  45 W7        30.01F HX  95
CHASE CITY*    FAIR      94  69  43 W5        30.02F HX  98
CLARKSVILLE*   FAIR      90  66  45 CALM      30.01F
SOUTH HILL*    MOSUNNY   91  72  53 SW5       30.07F HX  97
LAWRENCEVILLE* FAIR      91  70  49 W6        30.01F HX  97
EMPORIA*       MOSUNNY   90  68  48 S3        30.02F
$$

VAZ088>098-021900-
SOUTHEAST VIRGINIA

CITY           SKY/WX    TMP DP  RH WIND       PRES   REMARKS
NORFOLK        PTSUNNY   93  65  39 NE5       29.99F HX  95
VIRGINIA BEACH PTSUNNY   91  71  51 E9        29.99F HX  97
NORFOLK NAVAL  PTSUNNY   93  67  42 NW5       30.00F HX  96
WEST POINT*    MOSUNNY   92  65  40 W3        30.00F
SALUDA*        FAIR      88  72  58 N3        29.99F HX  95
NEWPORT NEWS   MOSUNNY   93  66  40 NW7       29.99F HX  96
LANGLEY AFB    MOSUNNY   89  71  55 E8        29.98F
FORT EUSTIS    MOSUNNY   92  67  42 N5        29.98F HX  95
WILLIAMSBURG*  MOSUNNY   97  66  36 W5        30.00F HX 100
HR EXEC AP*      N/A     91  70  49 W6        30.01F HX  97
FRANKLIN*      PTSUNNY   90  67  46 CALM      30.00F
WAKEFIELD      MOSUNNY   93  64  38 W7        30.00F
$$

VAZ020-022-025-037-045-021900-
WEST CENTRAL AND SOUTHWEST VIRGINIA

CITY           SKY/WX    TMP DP  RH WIND       PRES   REMARKS
STAUNTON*      MOSUNNY   88  65  45 NW5       30.08F
WAYNESBORO*    FAIR      86  65  49 CALM      30.08F
HOT SPRINGS VA MOSUNNY   78  62  58 W6        30.21F
LYNCHBURG      MOSUNNY   91  65  41 N5        30.06F
DANVILLE       MOSUNNY   93  64  38 MISG      30.03F
SOUTH BOSTON*  MOCLDY    93  62  35 W5        30.01F
MARTINSVILLE   PTSUNNY   91  61  36 SW3       30.08F
ROANOKE        MOSUNNY   91  60  35 VRB3      30.09F
BLACKSBURG     SUNNY     84  66  54 NW6       30.16F
DUBLIN*        CLOUDY    84  64  49 CALM      30.16F
MARION*        PTSUNNY   81  63  54 NW5       30.20F
HILLSVILLE*    PTSUNNY   80  64  57 NW5       30.17F
RICHLANDS*     MOCLDY    78  26  14 N3        30.19F
WISE*          PTSUNNY   81  61  50 N8        30.21F
ABINGDON*      PTSUNNY   86  60  41 CALM      30.16S
$$

MDZ021>025-VAZ099-100-021900-
SOUTHERN MARYLAND AND THE DELMARVA PENINSULA

CITY           SKY/WX    TMP DP  RH WIND       PRES   REMARKS
PATUXENT RIVER PTSUNNY   90  69  50 NE7       29.99F
BAY BRIDGE APT   N/A     84  68  58 CALM      29.99S
LEONARDTOWN    NOT AVBL
DOVER          CLOUDY    85  73  66 E6        29.97F
GEORGETOWN     PTSUNNY   90  66  45 NW7       29.98F
EASTON         PTSUNNY   90  68  48 N3        30.03F
CAMBRIDGE      PTSUNNY   90  66  45 NW3       29.98F
SALISBURY      MOSUNNY   90  68  48 N7        29.98F
OCEAN CITY     PTSUNNY   85  71  63 SE7       29.99F
WALLOPS ISLAND PTSUNNY   86  75  69 SE8       29.99F HX  95
ACCOMACK*      PTSUNNY   86  32  14 NW7       29.99F
$$

NCZ012>017-030>032-021900-
NORTH CENTRAL AND EASTERN NORTH CAROLINA

CITY           SKY/WX    TMP DP  RH WIND       PRES   REMARKS
ROANOKE RAPIDS MOCLDY    88  68  51 SE3       30.01F
RALEIGH        PTSUNNY   91  69  48 VRB5      30.04F HX  96
ELIZABETH CITY MOSUNNY   90  70  51 CALM      30.01F HX  95
AHOSKIE*       MOSUNNY   89  70  53 CALM      30.01F
EDENTON*       MOSUNNY   87  65  48 SW5       30.02F
CURRITUCK*     MOSUNNY   90  67  46 SE3       30.02S
KILL DEVIL HLS MOSUNNY   90  70  51 E3        30.01F HX  95
MANTEO         MOSUNNY   84  71  66 E3        30.03F
CAPE HATTERAS  PTSUNNY   86  72  62 VRB5      30.03F
TARBORO*       FAIR      92  69  46 CALM      30.03S HX  96
GOLDSBORO      PTSUNNY   90  69  50 CALM      30.02F HX  95
WASHINGTON     PTSUNNY   88  68  51 CALM      30.03S
GREENVILLE     PTSUNNY   90  70  51 CALM      30.05F HX  95
NEW BERN       MOSUNNY   90  68  48 CALM      30.04F
WILMINGTON     MOSUNNY   91  69  48 W5        30.04F HX  96
$$

VAZ048-021900-
ELSEWHERE

CITY           SKY/WX    TMP DP  RH WIND       PRES   REMARKS
HARRISBURG PA  PTSUNNY   89  63  41 NW8       29.98F
BALTIMORE      PTSUNNY   91  64  40 NW6       29.98F
ANNAPOLIS      PTSUNNY   83  75  77 SE7       29.99F
ANDREWS AFB    PTSUNNY   90  66  44 VRB5      29.99F
PHILADELPHIA   PTSUNNY   90  64  42 SW10G16   29.96F
HENDERSON NC   MOSUNNY   90  62  39 NW5       30.03F
GREENSBORO     PTSUNNY   90  64  42 VRB5      30.06F
ROCKY MOUNT    MOSUNNY   92  69  47 VRB3      30.02F HX  97
$$

VAZ100-021900-
MARINE

STATION/POSITION TIME  TEMP    WIND        PRES    WAVE   SWELL
                       AIR SEA DIR/SP/G            HT/PER HT/PER
                 (UTC) (F)     (DEG/KT/KT) (MB)    (FT/S) (FT/S)
BRANDYWINE LGT   1700   76 76  190/  4/  4 1016.3F
CAPE MAY NJ      1700   77 80  240/  8/  8 1015.6F
LEWES DE         1700   77 76   40/  4/  4 1015.9F
15NM E FENWICK I 1750   77 80   CALM  /  2 1015.8F   1/10   2/10
OCEAN-CITY-INLET 1700   81 77  140/  3/  5 1015.2F
GOOSES REEF MD   1800   82 83   90/  2/  2 1016.7F
COVE POINT MD    1700   81      10/  2/  5 1016.7F
SOLOMONS ISLAND  1700      81                N/A
BISHOPS HEAD MD  1700   81 83  250/  5/  6 1015.1F
PINEY POINT MD   1705          180/  2/  2   N/A
POTOMAC MD       1800   82 81  120/  2/  2 1014.5F   0
CAMBRIDGE MD     1700   83 80   60/  2/  2 1015.1F
LEWISETTA VA     1700   82 81  100/  5/  5 1015.7F
RAPPAHANNOCK LGT 1700          180/  4/  4 1016.8F
STINGRAY PT      1800   83 83  110/  6/  8 1016.2F   0
YORK RVR RNG VA  1700   84      90/  3/  4 1015.7F
YORKTOWN VA      1700   87 81   30/  3/  4 1015.7F
JAMESTOWN VA     1800   88 84   CALM  /  2   N/A
DOMINION TERM VA 1700   84     170/  2/  3 1016.1F
KIPTOPEKE VA     1700      80  200/  2/  3   N/A
CHES BAY BRIDGE  1700   84 79   CALM  /  2 1015.8F
CAPE HENRY VA    1700   83      90/  5/  7   N/A
CHESAPEAKE LGHT  1700   81     200/  3/  3 1017.2F
WILLOUBY STN VA  1700   85     230/  5/  5 1017.2F
CAPE HENRY BUOY  1728      83                N/A     1/10
1ST LANDING BUOY 1800      80              1015.6F   1/ 4
CAPE CHARLES BUO 1726      81                N/A     1/10   2/10
OFFSHORE WE BUOY 1711      81                N/A     2/10   2/10
64NM E OF VA BCH 1750   80 83  200/  4/  6 1016.3F   2/ 8   2/ 8
DUCK PIER NC     1700   86 79   90/  4/  5 1016.3F
44100 DUCK FRF   1724      82                N/A     1/14
44056 DUCK FRF   1711      83                N/A     1/ 9
OREGON INLET NC  1700   80 81   70/  5/  7 1017.1F
HATTERAS NC      1700   81 82  330/  4/  5 1017.3F
DIAMOND SHLS NC  1750   81 85  360/  4/  6 1017.1F   2/ 8   2/ 8
CAPE LOOKOUT NC  1800   81     150/  6/  6 1016.8F
$$


USA.gov is the U.S. government's official web portal to all federal, state and local government web resources and services.